Simultaneous Nadir Overpasses (SNOs) Predictions

Prediction of SNOs between LANDSAT-8 and METOP-B Satellite Orbit:

Table of predicted SNOs for the next 14.0 days since TLE Epoch: 1/19/2019
Index Date (LANDSAT-8) Time (LANDSAT-8) Lat,Lon (LANDSAT-8) SZA (LANDSAT-8 ) Date (METOP-B) Time (METOP-B) Lat,Lon (METOP-B) SZA (METOP-B ) Distance(km) Time Diff (sec)
1 01/19/2019 12:46:26 81.11, 27.87 103.09 01/19/2019 12:46:08 81.10, 27.94 103.09 1.21 18
2 01/19/2019 13:35:53 -81.11,-164.52 76.93 01/19/2019 13:36:49 -81.11,-164.63 76.92 1.90 56
3 01/22/2019 08:20:41 81.10, 94.13 102.43 01/22/2019 08:20:33 81.10, 94.16 102.43 0.65 8
4 01/22/2019 09:10:07 -81.12, -97.88 77.53 01/22/2019 09:11:13 -81.12, -98.00 77.52 2.13 66
5 01/25/2019 03:05:30 -81.08, -7.29 78.28 01/25/2019 03:04:19 -81.08, -7.41 78.32 2.18 71
6 01/25/2019 03:54:55 81.11, 160.72 101.77 01/25/2019 03:54:57 81.10, 160.75 101.78 0.51 2
7 01/27/2019 22:39:44 -81.07, 58.94 79.03 01/27/2019 22:38:43 -81.07, 58.82 79.06 2.11 61
8 01/27/2019 23:29:08 81.12,-132.70 101.07 01/27/2019 23:29:20 81.11,-132.67 101.07 0.79 12
9 01/30/2019 18:13:58 -81.08, 125.51 79.77 01/30/2019 18:13:07 -81.08, 125.41 79.80 1.69 51




NCC Satellite Simultaneous Nadir Overpasses (SNOs) Prediction Service
